#timestamp,LO_Frequency,Hit,StdDev 
1704754815.6,286047000.5,N
1704754835.5,286047000.0,N
1704754855.3,286047000.8,N
1704754875.2,286047000.6,N
1704754895.9,286046999.7,N
1704754915.7,286047000.1,N
1704754935.6,286047002.4,N
1704754955.4,286047002.7,N
1704754975.2,286046999.8,N
1704754995.1,286047000.1,N
1704754996.0,286047000.1,N
1704755015.8,286047002.3,N
1704755035.7,286047002.8,N
1704755055.5,286047002.2,N
1704755075.3,286047002.6,N
1704755095.2,286047002.7,N
1704755115.0,286047002.4,N
1704755115.9,286047002.4,N
1704755135.8,286047002.3,N
1704755155.6,286047002.8,N
1704755175.4,286047000.0,N
1704755195.3,286047000.1,N
1704755215.1,286047002.3,N
1704755235.8,286047002.7,N
1704755255.7,286047002.3,N
1704755275.5,286047002.7,N
1704755295.4,286047002.3,N
1704755315.2,286047002.4,N
1704755335.0,286047001.5,N
1704755335.9,286047001.5,N
1704755355.8,286047001.8,N
1704755375.6,286047003.1,N
1704755395.4,286047003.1,N
1704755415.3,286047003.4,Y
1704755435.1,286047001.6,P
1704755455.9,286047001.6,P
1704755475.7,286046999.9,N
1704755495.5,286047002.7,Y
1704755515.4,286047000.0,P
1704755535.2,286047002.1,P
1704755555.1,286047002.0,N
1704755556.0,286047002.0,N
1704755575.8,286047001.8,N
1704755595.6,286047003.9,Y
1704755615.5,286046999.7,P
1704755635.3,286047002.7,N
1704755655.2,286046999.7,N
1704755675.9,286047001.1,N
1704755695.7,286046998.4,N
1704755715.6,286046996.7,N
1704755735.4,286046997.1,N
1704755755.3,286046997.4,N
1704755775.1,286046996.9,N
1704755776.0,286046996.9,N
1704755795.8,286046999.6,N
1704755815.7,286046999.6,N
1704755835.5,286046998.5,N
1704755855.3,286047001.2,N
1704755875.2,286046998.2,N
1704755895.0,286046998.2,N
1704755895.9,286046998.2,N
1704755915.8,286046998.9,N
1704755935.6,286046998.2,N
1704755955.4,286047000.5,N
1704755975.3,286046998.1,N
1704755995.1,286046999.4,N
1704756015.9,286046996.7,N
1704756035.7,286046999.2,N
1704756055.5,286046998.8,N
1704756075.4,286046998.7,N
1704756095.2,286046998.2,N
1704756115.0,286046998.2,N
1704756115.9,286046998.2,N
1704756135.8,286046998.4,N
1704756155.6,286046998.6,N
1704756175.5,286046998.2,N
1704756195.3,286047000.8,N
1704756215.1,286047001.0,N
1704756235.9,286047000.1,N
1704756255.7,286047000.2,N
1704756275.5,286047000.8,N
1704756295.4,286046998.5,N
1704756315.2,286046996.6,N
1704756335.1,286046998.3,N
1704756336.0,286046998.3,N
1704756355.8,286046998.9,N
1704756375.6,286046999.1,N
1704756395.5,286046998.4,N
1704756415.3,286047000.9,N
1704756435.1,286047001.0,N
1704756455.9,286047001.0,N
1704756475.7,286047000.4,N
1704756495.6,286046998.2,N
1704756515.4,286047001.0,N
1704756535.2,286047000.0,N
1704756555.1,286046999.9,N
1704756556.0,286046999.9,N
1704756575.8,286047000.6,N
1704756595.6,286046998.1,N
1704756615.5,286046998.1,N
1704756635.3,286047001.1,N
1704756655.2,286047001.2,N
1704756675.9,286047000.8,N
1704756695.7,286047000.5,N
1704756715.6,286046998.3,N
1704756735.4,286046998.4,N
1704756755.3,286046998.3,N
1704756775.1,286046998.9,N
1704756776.0,286046998.9,N
1704756795.8,286046999.6,N
1704756815.7,286046998.1,N
1704756835.5,286047000.6,N
1704756855.4,286047001.1,N
1704756875.2,286047000.4,N
1704756895.0,286047000.6,N
1704756895.9,286047000.6,N
1704756915.8,286047000.8,N
1704756935.6,286046998.2,N
1704756955.5,286047000.7,N
1704756975.3,286046998.1,N
1704756995.1,286046998.1,N
1704757015.9,286046998.8,N
1704757035.7,286046998.4,N
1704757055.6,286046996.5,Y
1704757075.4,286046999.4,P
1704757095.2,286046998.9,P
1704757115.1,286046998.7,P
1704757116.0,286046998.7,Y
1704757165.9,286046999.8,E
1704757175.8,286047000.3,N
1704757195.6,286047000.3,P
1704757215.5,286046999.8,P
1704757235.3,286047002.6,Y
1704757255.1,286046999.9,P
1704757275.9,286047000.3,N
1704757295.7,286047002.8,P
1704757315.5,286047000.5,N
1704757335.4,286047001.1,N
1704757355.2,286047001.1,N
1704757375.1,286046998.5,N
1704757376.0,286046998.5,N
1704757395.8,286046998.3,N
1704757415.6,286047000.0,N
1704757435.5,286047000.1,N
1704757455.3,286047000.9,N
1704757475.1,286047000.7,N
1704757495.9,286046998.8,N
1704757515.7,286046999.4,N
1704757535.6,286046999.4,N
1704757555.4,286046998.2,N
1704757575.2,286046998.6,N
1704757595.1,286047000.0,N
1704757596.0,286047000.0,N
1704757615.8,286047000.4,N
1704757635.6,286047000.2,N
1704757655.5,286047002.7,N
1704757675.3,286047001.5,N
1704757695.2,286047002.0,N
1704757715.9,286047001.9,N
1704757735.7,286047002.4,N
1704757755.6,286047002.6,N
1704757775.4,286046998.6,N
1704757795.2,286046998.2,N
1704757815.1,286046999.9,N
1704757816.0,286046999.9,N
1704757835.8,286047000.9,N
1704757855.7,286047001.2,N
1704757875.5,286047001.0,N
1704757895.3,286047000.5,N
1704757915.2,286046998.1,N
1704757935.0,286046998.2,N
1704757935.9,286046998.2,N
1704757955.8,286047000.8,N
1704757975.6,286046998.2,N
1704757995.4,286046998.4,N
1704758015.3,286047000.8,N
1704758035.1,286047000.1,N
1704758055.8,286047000.2,N
1704758075.7,286047000.3,N
1704758095.5,286047000.9,N
1704758115.4,286047000.7,N
1704758135.2,286047000.7,N
1704758155.0,286047001.0,N
1704758155.9,286047001.0,N
1704758175.8,286047000.4,N
1704758195.6,286047000.0,N
1704758215.5,286047001.7,N
1704758235.3,286047001.3,N
1704758255.1,286047002.0,N
1704758275.9,286047002.2,N
1704758295.7,286047002.7,N
1704758315.5,286047002.7,N
1704758335.4,286047002.0,N
1704758355.2,286047001.9,N
1704758375.1,286047002.5,N
1704758376.0,286047002.5,N
1704758395.8,286047004.3,Y
